Morrisville, VT

11:06 AM EDT on April 24, 2017 (GMT -0400)
Morrisville Stowe State

Weather History for KMVL - March, 2013

Change the Weather History Date:

Saturday, March 2, 2013

  Actual Average Record
Temperature  
Mean Temperature 27 °F 23 °F  
Max Temperature 31 °F 35 °F 52 °F (1997)
Min Temperature 22 °F 12 °F -7 °F (2001)
Degree Days  
Heating Degree Days 38 42  
Month to date heating degree days 71 84  
Since 1 July heating degree days 5603 6044  
Cooling Degree Days 0 0  
Month to date cooling degree days 0 0  
Year to date cooling degree days 0 0  
Moisture  
Dew Point 22 °F    
Average Humidity 79    
Maximum Humidity 88    
Minimum Humidity 69    
Precipitation  
Precipitation 0.02 in 0.04 in 0.88 in (2007)
Month to date precipitation 0.02 0.08  
Year to date precipitation 2.73 4.36  
Sea Level Pressure  
Sea Level Pressure 29.76 in    
Wind  
Wind Speed 9 mph (North)    
Max Wind Speed 16 mph    
Max Gust Speed 22 mph    
Visibility 5 miles    
Events Snow    
T = Trace of Precipitation, MM = Missing Value Source: NWS Daily Summary

Daily Weather History Graph

Daily Weather History Graph

Search for Another Location

Airport or City:

Trip Planner

Search our weather history database for the weather conditions in past years. The results will help you decide how hot, cold, wet, or windy it might be!

Date:

Astronomy

Mar. 02, 2013 Rise Set
Actual Time 6:25 AM EST 5:39 PM EST
Civil Twilight 5:56 AM EST 6:09 PM EST
Nautical Twilight 5:22 AM EST 6:42 PM EST
Astronomical Twilight 4:49 AM EST 7:16 PM EST
Moon 11:31 PM EST (3/2) 8:37 AM EST (3/2)
Length of Visible Light 12h 12m
Length of Day
11h 14m
Waning Gibbous, 74% of the Moon is Illuminated
Mar 2
Waning Gibbous
Mar 4
Last Quarter
Mar 11
New
Mar 19
First Quarter
Mar 27
Full

Hourly Weather History & Observations

Time (EST) Temp. Windchill Dew Point Humidity Pressure Visibility Wind Dir Wind Speed Gust Speed Precip Events Conditions
12:54 AM 30.0 °F 23.2 °F 24.1 °F 79% 29.76 in 10.0 mi North 6.9 mph - 0.00 in   Overcast
1:54 AM 28.9 °F 23.9 °F 25.0 °F 85% 29.75 in 5.0 mi North 4.6 mph - 0.00 in Snow Light Snow
2:54 AM 30.0 °F 25.2 °F 25.0 °F 82% 29.75 in 6.0 mi North 4.6 mph - 0.00 in Snow Light Snow
3:47 AM 30.2 °F 24.3 °F 24.8 °F 80% 29.72 in 2.5 mi North 5.8 mph - 0.00 in Snow Light Snow
3:54 AM 30.0 °F 25.2 °F 25.0 °F 82% 29.75 in 2.5 mi North 4.6 mph - 0.00 in Snow Light Snow
4:13 AM 28.4 °F 23.3 °F 24.8 °F 86% 29.72 in 3.0 mi North 4.6 mph - 0.00 in Snow Light Snow
4:54 AM 28.9 °F 22.8 °F 25.0 °F 85% 29.75 in 5.0 mi North 5.8 mph - 0.00 in Snow Light Snow
5:34 AM 30.2 °F 25.4 °F 24.8 °F 80% 29.73 in 5.0 mi North 4.6 mph - 0.01 in Snow Light Snow
5:54 AM 30.0 °F 24.1 °F 25.0 °F 82% 29.75 in 8.0 mi Variable 5.8 mph - 0.01 in Snow Light Snow
6:01 AM 30.2 °F 24.3 °F 24.8 °F 80% 29.73 in 8.0 mi North 5.8 mph - 0.00 in   Overcast
6:54 AM 28.9 °F 19.8 °F 25.0 °F 85% 29.76 in 7.0 mi NNW 10.4 mph 16.1 mph 0.00 in   Overcast
7:54 AM 28.0 °F 19.3 °F 25.0 °F 88% 29.77 in 7.0 mi North 9.2 mph 17.3 mph N/A   Overcast
8:23 AM 28.4 °F 19.7 °F 24.8 °F 86% 29.74 in 10.0 mi NNW 9.2 mph 16.1 mph N/A   Overcast
8:54 AM 28.9 °F 21.9 °F 24.1 °F 82% 29.77 in 10.0 mi North 6.9 mph - N/A   Overcast
9:54 AM 28.9 °F 19.8 °F 23.0 °F 78% 29.77 in 10.0 mi North 10.4 mph - N/A   Overcast
10:35 AM 30.2 °F 21.9 °F 23.0 °F 75% 29.74 in 8.0 mi North 9.2 mph - N/A   Overcast
10:54 AM 30.0 °F 19.5 °F 24.1 °F 79% 29.77 in 10.0 mi NNW 13.8 mph 19.6 mph N/A   Overcast
11:54 AM 30.0 °F 19.1 °F 23.0 °F 75% 29.76 in 10.0 mi NNW 15.0 mph 19.6 mph N/A   Overcast
12:54 PM 30.9 °F 21.7 °F 21.9 °F 69% 29.75 in 9.0 mi NNW 11.5 mph 16.1 mph 0.00 in   Overcast
1:54 PM 30.0 °F 20.0 °F 21.9 °F 72% 29.75 in 7.0 mi NNW 12.7 mph - 0.00 in Snow Light Snow
2:54 PM 28.9 °F 19.2 °F 21.0 °F 72% 29.75 in 6.0 mi NNW 11.5 mph 18.4 mph 0.00 in   Haze
3:54 PM 28.9 °F 20.4 °F 21.0 °F 72% 29.76 in 8.0 mi NNW 9.2 mph - 0.00 in   Overcast
4:19 PM 28.4 °F 19.7 °F 21.2 °F 74% 29.72 in 3.0 mi NNW 9.2 mph - 0.00 in Snow Light Snow
4:54 PM 27.0 °F 16.7 °F 21.0 °F 78% 29.77 in 5.0 mi North 11.5 mph 16.1 mph 0.00 in Snow Light Snow
5:17 PM 26.6 °F 20.0 °F 21.2 °F 80% 29.74 in 3.0 mi North 5.8 mph - 0.00 in Snow Light Snow
5:45 PM 26.6 °F 20.0 °F 21.2 °F 80% 29.75 in 2.5 mi North 5.8 mph - 0.00 in Snow Light Snow
5:54 PM 26.1 °F 15.6 °F 21.0 °F 81% 29.78 in 2.5 mi North 11.5 mph 17.3 mph 0.00 in Snow Light Snow
6:54 PM 25.0 °F 15.5 °F 21.0 °F 85% 29.80 in 2.5 mi North 9.2 mph - 0.00 in Snow Light Snow
7:08 PM 24.8 °F 16.9 °F 19.4 °F 80% 29.76 in 3.0 mi North 6.9 mph - 0.00 in Snow Light Snow
7:54 PM 24.1 °F 15.2 °F 19.0 °F 81% 29.79 in 5.0 mi North 8.1 mph - 0.00 in Snow Light Snow
8:12 PM 24.8 °F 14.6 °F 17.6 °F 74% 29.76 in 2.5 mi North 10.4 mph 17.3 mph 0.00 in Snow Light Snow
8:26 PM 23.0 °F 11.7 °F 17.6 °F 80% 29.76 in 3.0 mi North 11.5 mph - 0.00 in Snow Light Snow
8:54 PM 23.0 °F 14.7 °F 18.0 °F 81% 29.80 in 2.5 mi North 6.9 mph - 0.00 in Snow Light Snow
9:05 PM 23.0 °F 15.8 °F 17.6 °F 80% 29.76 in 3.0 mi North 5.8 mph - 0.00 in Snow Light Snow
9:54 PM 23.0 °F 15.8 °F 18.0 °F 81% 29.78 in 3.0 mi NNE 5.8 mph - 0.01 in Snow Light Snow
10:54 PM 23.0 °F 18.4 °F 18.0 °F 81% 29.78 in 3.0 mi North 3.5 mph - 0.00 in Snow Light Snow
11:11 PM 21.2 °F 14.9 °F 17.6 °F 86% 29.74 in 2.5 mi North 4.6 mph - 0.00 in Snow Light Snow
11:22 PM 21.2 °F 14.9 °F 17.6 °F 86% 29.74 in 1.8 mi North 4.6 mph - 0.00 in Snow Light Snow
11:27 PM 21.2 °F 16.4 °F 17.6 °F 86% 29.73 in 3.0 mi North 3.5 mph - 0.00 in Snow Light Snow
11:36 PM 21.2 °F 16.4 °F 17.6 °F 86% 29.73 in 5.0 mi North 3.5 mph - 0.00 in Snow Light Snow
11:54 PM 21.9 °F 14.5 °F 18.0 °F 85% 29.77 in 5.0 mi North 5.8 mph - 0.00 in Snow Light Snow